Location: Newark
(55.8871°S, 37.4681°W)
Time: 11:19:28
(UTC+00:00)

N. Korean satellite - Pass Details

Date: 16 October 2019
Orbit: 456 x 506 km, 97.2° (Epoch: 12 November)

Event Time Altitude Azimuth Distance (km) Brightness Sun altitude
Rises 05:24:20 0° 79° (E) 2,641 10.9 -14.5°
Reaches altitude 10° 05:28:29 10° 124° (SE) 1,761 10.8 -14.1°
Maximum altitude 05:28:51 10° 129° (SE) 1,754 10.8 -14.0°
Drops below altitude 10° 05:29:13 10° 135° (SE) 1,762 10.8 -14.0°
Sets 05:33:22 0° 180° (S) 2,649 10.9 -13.5°
